Year,Month,Day,Hour,Minute,Value (Times are PST for temperature in C)
2016,06,16,00,00,7.50
2016,06,16,00,01,7.50
2016,06,16,00,02,7.50
2016,06,16,00,03,7.40
2016,06,16,00,04,7.40
2016,06,16,00,05,7.40
2016,06,16,00,06,7.40
2016,06,16,00,07,7.40
2016,06,16,00,08,7.40
2016,06,16,00,09,7.40
2016,06,16,00,10,7.40
2016,06,16,00,11,7.30
2016,06,16,00,12,7.30
2016,06,16,00,13,7.30
2016,06,16,00,14,7.30
2016,06,16,00,15,7.30
2016,06,16,00,16,7.30
2016,06,16,00,17,7.30
2016,06,16,00,18,7.30
2016,06,16,00,19,7.30
2016,06,16,00,20,7.20
2016,06,16,00,21,7.30
2016,06,16,00,22,7.30
2016,06,16,00,23,7.30
2016,06,16,00,24,7.30
2016,06,16,00,25,7.30
2016,06,16,00,26,7.20
2016,06,16,00,27,7.20
2016,06,16,00,28,7.20
2016,06,16,00,29,7.20
2016,06,16,00,30,7.20
2016,06,16,00,31,7.20
2016,06,16,00,32,7.20
2016,06,16,00,33,7.20
2016,06,16,00,34,7.20
2016,06,16,00,35,7.20
2016,06,16,00,36,7.20
2016,06,16,00,37,7.20
2016,06,16,00,38,7.20
2016,06,16,00,39,7.20
2016,06,16,00,40,7.20
2016,06,16,00,41,7.20
2016,06,16,00,42,7.20
2016,06,16,00,43,7.20
2016,06,16,00,44,7.20
2016,06,16,00,45,7.20
2016,06,16,00,46,7.20
2016,06,16,00,47,7.20
2016,06,16,00,48,7.20
2016,06,16,00,49,7.20
2016,06,16,00,50,7.20
2016,06,16,00,51,7.20
2016,06,16,00,52,7.20
2016,06,16,00,53,7.20
2016,06,16,00,54,7.20
2016,06,16,00,55,7.20
2016,06,16,00,56,7.20
2016,06,16,00,57,7.20
2016,06,16,00,58,7.20
2016,06,16,00,59,7.20
2016,06,16,01,00,7.20
2016,06,16,01,01,7.20
2016,06,16,01,02,7.20
2016,06,16,01,03,7.20
2016,06,16,01,04,7.20
2016,06,16,01,05,7.20
2016,06,16,01,06,7.20
2016,06,16,01,07,7.20
2016,06,16,01,08,7.20
2016,06,16,01,09,7.20
2016,06,16,01,10,7.10
2016,06,16,01,11,7.10
2016,06,16,01,12,7.10
2016,06,16,01,13,7.10
2016,06,16,01,14,7.10
2016,06,16,01,15,7.10
2016,06,16,01,16,7.10
2016,06,16,01,17,7.10
2016,06,16,01,18,7.10
2016,06,16,01,19,7.10
2016,06,16,01,20,7.10
2016,06,16,01,21,7.10
2016,06,16,01,22,7.10
2016,06,16,01,23,7.10
2016,06,16,01,24,7.10
2016,06,16,01,25,7.10
2016,06,16,01,26,7.10
2016,06,16,01,27,7.10
2016,06,16,01,28,7.10
2016,06,16,01,29,7.10
2016,06,16,01,30,7.10
2016,06,16,01,31,7.10
2016,06,16,01,32,7.10
2016,06,16,01,33,7.10
2016,06,16,01,34,7.10
2016,06,16,01,35,7.10
2016,06,16,01,36,7.10
2016,06,16,01,37,7.10
2016,06,16,01,38,7.10
2016,06,16,01,39,7.10
2016,06,16,01,40,7.10
2016,06,16,01,41,7.10
2016,06,16,01,42,7.10
2016,06,16,01,43,7.10
2016,06,16,01,44,7.10
2016,06,16,01,49,7.00
2016,06,16,01,50,7.10
2016,06,16,01,51,7.10
2016,06,16,01,52,7.10
2016,06,16,01,53,7.10
2016,06,16,01,54,7.10
2016,06,16,01,55,7.10
2016,06,16,01,56,7.10
2016,06,16,01,57,7.00
2016,06,16,01,58,7.00
2016,06,16,01,59,7.00
2016,06,16,02,00,7.00
2016,06,16,02,01,7.00
2016,06,16,02,02,7.00
2016,06,16,02,03,7.00
2016,06,16,02,04,7.00
2016,06,16,02,05,7.00
2016,06,16,02,06,7.00
2016,06,16,02,07,6.90
2016,06,16,02,08,6.90
2016,06,16,02,09,6.90
2016,06,16,02,10,6.90
2016,06,16,02,11,6.90
2016,06,16,02,12,6.90
2016,06,16,02,13,6.90
2016,06,16,02,14,6.90
2016,06,16,02,15,6.90
2016,06,16,02,16,6.90
2016,06,16,02,17,6.90
2016,06,16,02,18,6.90
2016,06,16,02,19,6.90
2016,06,16,02,20,6.90
2016,06,16,02,21,6.90
2016,06,16,02,22,6.90
2016,06,16,02,23,6.90
2016,06,16,02,24,6.90
2016,06,16,02,25,6.90
2016,06,16,02,26,6.90
2016,06,16,02,27,6.90
2016,06,16,02,28,6.90
2016,06,16,02,29,6.90
2016,06,16,02,30,6.90
2016,06,16,02,31,6.90
2016,06,16,02,32,6.90
2016,06,16,02,33,6.90
2016,06,16,02,34,6.90
2016,06,16,02,35,6.90
2016,06,16,02,36,6.90
2016,06,16,02,37,6.90
2016,06,16,02,38,6.90
2016,06,16,02,39,6.90
2016,06,16,02,40,6.90
2016,06,16,02,41,6.90
2016,06,16,02,42,6.90
2016,06,16,02,43,6.90
2016,06,16,02,44,6.90
2016,06,16,02,45,6.90
2016,06,16,02,46,6.90
2016,06,16,02,47,6.90
2016,06,16,02,48,6.90
2016,06,16,02,49,6.90
2016,06,16,02,50,6.90
2016,06,16,02,51,6.90
2016,06,16,02,52,6.90
2016,06,16,02,53,6.90
2016,06,16,02,54,6.80
2016,06,16,02,55,6.80
2016,06,16,02,56,6.80
2016,06,16,02,57,6.80
2016,06,16,02,58,6.80
2016,06,16,02,59,6.80
2016,06,16,03,00,6.80
2016,06,16,03,01,6.80
2016,06,16,03,02,6.80
2016,06,16,03,03,6.80
2016,06,16,03,04,6.80
2016,06,16,03,05,6.80
2016,06,16,03,06,6.80
2016,06,16,03,07,6.80
2016,06,16,03,08,6.80
2016,06,16,03,09,6.80
2016,06,16,03,10,6.80
2016,06,16,03,11,6.80
2016,06,16,03,12,6.80
2016,06,16,03,13,6.80
2016,06,16,03,14,6.80
2016,06,16,03,15,6.80
2016,06,16,03,16,6.80
2016,06,16,03,17,6.80
2016,06,16,03,18,6.80
2016,06,16,03,19,6.80
2016,06,16,03,20,6.80
2016,06,16,03,21,6.80
2016,06,16,03,22,6.80
2016,06,16,03,23,6.80
2016,06,16,03,24,6.80
2016,06,16,03,25,6.80
2016,06,16,03,26,6.80
2016,06,16,03,27,6.80
2016,06,16,03,28,6.80
2016,06,16,03,29,6.80
2016,06,16,03,30,6.80
2016,06,16,03,31,6.80
2016,06,16,03,32,6.80
2016,06,16,03,33,6.80
2016,06,16,03,34,6.80
2016,06,16,03,35,6.80
2016,06,16,03,36,6.80
2016,06,16,03,37,6.80
2016,06,16,03,38,6.80
2016,06,16,03,39,6.80
2016,06,16,03,40,6.70
2016,06,16,03,41,6.70
2016,06,16,03,42,6.70
2016,06,16,03,43,6.70
2016,06,16,03,44,6.70
2016,06,16,03,45,6.70
2016,06,16,03,46,6.70
2016,06,16,03,47,6.70
2016,06,16,03,48,6.70
2016,06,16,03,49,6.70
2016,06,16,03,50,6.70
2016,06,16,03,51,6.70
2016,06,16,03,52,6.70
2016,06,16,03,53,6.70
2016,06,16,03,54,6.70
2016,06,16,03,55,6.70
2016,06,16,03,56,6.70
2016,06,16,03,57,6.70
2016,06,16,03,58,6.70
2016,06,16,03,59,6.70
2016,06,16,04,00,6.70
2016,06,16,04,01,6.70
2016,06,16,04,02,6.70
2016,06,16,04,03,6.70
2016,06,16,04,04,6.70
2016,06,16,04,05,6.70
2016,06,16,04,06,6.70
2016,06,16,04,07,6.70
2016,06,16,04,08,6.70
2016,06,16,04,09,6.70
2016,06,16,04,10,6.70
2016,06,16,04,11,6.80
2016,06,16,04,12,6.80
2016,06,16,04,13,6.80
2016,06,16,04,14,6.80
2016,06,16,04,15,6.80
2016,06,16,04,16,6.80
2016,06,16,04,17,6.80
2016,06,16,04,18,6.80
2016,06,16,04,19,6.80
2016,06,16,04,20,6.80
2016,06,16,04,21,6.80
2016,06,16,04,22,6.80
2016,06,16,04,23,6.80
2016,06,16,04,24,6.80
2016,06,16,04,25,6.80
2016,06,16,04,26,6.80
2016,06,16,04,27,6.80
2016,06,16,04,28,6.80
2016,06,16,04,29,6.80
2016,06,16,04,30,6.80
2016,06,16,04,31,6.80
2016,06,16,04,32,6.80
2016,06,16,04,33,6.80
2016,06,16,04,34,6.80
2016,06,16,04,35,6.80
2016,06,16,04,36,6.80
2016,06,16,04,37,6.80
2016,06,16,04,38,6.80
2016,06,16,04,39,6.80
2016,06,16,04,40,6.80
2016,06,16,04,41,6.80
2016,06,16,04,42,6.80
2016,06,16,04,43,6.80
2016,06,16,04,44,6.80
2016,06,16,04,45,6.80
2016,06,16,04,46,6.80
2016,06,16,04,47,6.80
2016,06,16,04,48,6.80
2016,06,16,04,49,6.80
2016,06,16,04,50,6.80
2016,06,16,04,51,6.80
2016,06,16,04,52,6.80
2016,06,16,04,53,6.80
2016,06,16,04,54,6.80
2016,06,16,04,55,6.80
2016,06,16,04,56,6.80
2016,06,16,04,57,6.80
2016,06,16,04,58,6.80
2016,06,16,04,59,6.80
2016,06,16,05,00,6.80
2016,06,16,05,01,6.80
2016,06,16,05,02,6.80
2016,06,16,05,03,6.80
2016,06,16,05,04,6.80
2016,06,16,05,05,6.80
2016,06,16,05,06,6.80
2016,06,16,05,07,6.80
2016,06,16,05,08,6.80
2016,06,16,05,09,6.80
2016,06,16,05,10,6.80
2016,06,16,05,11,6.80
2016,06,16,05,12,6.80
2016,06,16,05,13,6.80
2016,06,16,05,14,6.80
2016,06,16,05,15,6.80
2016,06,16,05,16,6.80
2016,06,16,05,17,6.80
2016,06,16,05,18,6.80
2016,06,16,05,19,6.80
2016,06,16,05,20,6.80
2016,06,16,05,21,6.80
2016,06,16,05,22,6.80
2016,06,16,05,23,6.80
2016,06,16,05,24,6.80
2016,06,16,05,25,6.80
2016,06,16,05,26,6.80
2016,06,16,05,27,6.80
2016,06,16,05,28,6.80
2016,06,16,05,29,6.80
2016,06,16,05,30,6.80
2016,06,16,05,31,6.80
2016,06,16,05,32,6.80
2016,06,16,05,33,6.80
2016,06,16,05,34,6.80
2016,06,16,05,35,6.80
2016,06,16,05,36,6.80
2016,06,16,05,37,6.80
2016,06,16,05,38,6.80
2016,06,16,05,39,6.80
2016,06,16,05,40,6.80
2016,06,16,05,41,6.80
2016,06,16,05,42,6.80
2016,06,16,05,43,6.80
2016,06,16,05,44,6.80
2016,06,16,05,45,6.80
2016,06,16,05,46,6.80
2016,06,16,05,47,6.80
2016,06,16,05,48,6.80
2016,06,16,05,49,6.80
2016,06,16,05,50,6.80
2016,06,16,05,51,6.80
2016,06,16,05,52,6.80
2016,06,16,05,53,6.80
2016,06,16,05,54,6.80
2016,06,16,05,55,6.80
2016,06,16,05,56,6.80
2016,06,16,05,57,6.80
2016,06,16,05,58,6.80
2016,06,16,05,59,6.80
2016,06,16,06,00,6.80
2016,06,16,06,01,6.80
2016,06,16,06,02,6.80
2016,06,16,06,03,6.80
2016,06,16,06,04,6.80
2016,06,16,06,05,6.80
2016,06,16,06,06,6.80
2016,06,16,06,07,6.80
2016,06,16,06,08,6.80
2016,06,16,06,09,6.80
2016,06,16,06,10,6.90
2016,06,16,06,11,6.90
2016,06,16,06,12,6.90
2016,06,16,06,13,6.90
2016,06,16,06,14,6.90
2016,06,16,06,15,6.90
2016,06,16,06,16,6.90
2016,06,16,06,17,6.90
2016,06,16,06,18,6.90
2016,06,16,06,19,6.90
2016,06,16,06,20,6.90
2016,06,16,06,21,6.90
2016,06,16,06,22,6.90
2016,06,16,06,23,7.00
2016,06,16,06,24,7.00
2016,06,16,06,25,7.00
2016,06,16,06,26,7.00
2016,06,16,06,27,7.00
2016,06,16,06,28,7.00
2016,06,16,06,29,7.00
2016,06,16,06,30,7.10
2016,06,16,06,31,7.10
2016,06,16,06,32,7.10
2016,06,16,06,33,7.10
2016,06,16,06,34,7.10
2016,06,16,06,35,7.10
2016,06,16,06,36,7.20
2016,06,16,06,37,7.20
2016,06,16,06,38,7.20
2016,06,16,06,39,7.20
2016,06,16,06,40,7.20
2016,06,16,06,41,7.20
2016,06,16,06,42,7.20
2016,06,16,06,43,7.20
2016,06,16,06,44,7.20
2016,06,16,06,45,7.20
2016,06,16,06,46,7.30
2016,06,16,06,47,7.30
2016,06,16,06,48,7.30
2016,06,16,06,49,7.30
2016,06,16,06,50,7.30
2016,06,16,06,51,7.30
2016,06,16,06,52,7.30
2016,06,16,06,53,7.30
2016,06,16,06,54,7.30
2016,06,16,06,55,7.30
2016,06,16,06,56,7.40
2016,06,16,06,57,7.40
2016,06,16,06,58,7.40
2016,06,16,06,59,7.40
2016,06,16,07,00,7.40
2016,06,16,07,01,7.40
2016,06,16,07,02,7.40
2016,06,16,07,03,7.50
2016,06,16,07,04,7.50
2016,06,16,07,05,7.50
2016,06,16,07,06,7.50
2016,06,16,07,07,7.60
2016,06,16,07,08,7.60
2016,06,16,07,09,7.60
2016,06,16,07,10,7.60
2016,06,16,07,11,7.60
2016,06,16,07,12,7.70
2016,06,16,07,13,7.70
2016,06,16,07,14,7.70
2016,06,16,07,15,7.70
2016,06,16,07,16,7.80
2016,06,16,07,17,7.80
2016,06,16,07,18,7.80
2016,06,16,07,19,7.80
2016,06,16,07,20,7.80
2016,06,16,07,21,7.90
2016,06,16,07,22,7.90
2016,06,16,07,23,7.90
2016,06,16,07,24,8.00
2016,06,16,07,25,8.00
2016,06,16,07,26,8.10
2016,06,16,07,27,8.10
2016,06,16,07,28,8.20
2016,06,16,07,29,8.20
2016,06,16,07,30,8.30
2016,06,16,07,31,8.40
2016,06,16,07,32,8.40
2016,06,16,07,33,8.50
2016,06,16,07,34,8.60
2016,06,16,07,35,8.70
2016,06,16,07,36,8.70
2016,06,16,07,37,8.80
2016,06,16,07,38,8.80
2016,06,16,07,39,8.90
2016,06,16,07,40,9.00
2016,06,16,07,41,9.10
2016,06,16,07,42,9.20
2016,06,16,07,43,9.30
2016,06,16,07,44,9.30
2016,06,16,07,45,9.40
2016,06,16,07,46,9.50
2016,06,16,07,47,9.50
2016,06,16,07,48,9.60
2016,06,16,07,49,9.60
2016,06,16,07,50,9.70
2016,06,16,07,51,9.70
2016,06,16,07,52,9.80
2016,06,16,07,53,9.80
2016,06,16,07,54,9.80
2016,06,16,07,55,9.80
2016,06,16,07,56,9.80
2016,06,16,07,57,9.80
2016,06,16,07,58,9.80
2016,06,16,07,59,9.90
2016,06,16,08,00,9.90
2016,06,16,08,01,9.90
2016,06,16,08,02,10.00
2016,06,16,08,03,10.00
2016,06,16,08,04,10.00
2016,06,16,08,05,10.10
2016,06,16,08,06,10.10
2016,06,16,08,07,10.10
2016,06,16,08,08,10.10
2016,06,16,08,09,10.20
2016,06,16,08,10,10.20
2016,06,16,08,11,10.20
2016,06,16,08,12,10.20
2016,06,16,08,13,10.20
2016,06,16,08,14,10.20
2016,06,16,08,15,10.20
2016,06,16,08,16,10.30
2016,06,16,08,17,10.30
2016,06,16,08,18,10.30
2016,06,16,08,19,10.30
2016,06,16,08,20,10.30
2016,06,16,08,21,10.30
2016,06,16,08,22,10.30
2016,06,16,08,23,10.30
2016,06,16,08,24,10.20
2016,06,16,08,25,10.20
2016,06,16,08,26,10.20
2016,06,16,08,27,10.30
2016,06,16,08,28,10.30
2016,06,16,08,29,10.30
2016,06,16,08,30,10.30
2016,06,16,08,31,10.40
2016,06,16,08,32,10.40
2016,06,16,08,33,10.40
2016,06,16,08,34,10.40
2016,06,16,08,35,10.40
2016,06,16,08,36,10.40
2016,06,16,08,37,10.40
2016,06,16,08,38,10.30
2016,06,16,08,39,10.30
2016,06,16,08,40,10.30
2016,06,16,08,41,10.30
2016,06,16,08,42,10.20
2016,06,16,08,43,10.20
2016,06,16,08,44,10.20
2016,06,16,08,45,10.10
2016,06,16,08,46,10.10
2016,06,16,08,47,10.10
2016,06,16,08,48,10.10
2016,06,16,08,49,10.10
2016,06,16,08,50,10.10
2016,06,16,08,51,10.10
2016,06,16,08,52,10.20
2016,06,16,08,53,10.20
2016,06,16,08,54,10.20
2016,06,16,08,55,10.20
2016,06,16,08,56,10.30
2016,06,16,08,57,10.30
2016,06,16,08,58,10.30
2016,06,16,08,59,10.30
2016,06,16,09,00,10.30
2016,06,16,09,01,10.30
2016,06,16,09,02,10.30
2016,06,16,09,03,10.30
2016,06,16,09,04,10.30
2016,06,16,09,05,10.30
2016,06,16,09,06,10.30
2016,06,16,09,07,10.40
2016,06,16,09,08,10.50
2016,06,16,09,09,10.60
2016,06,16,09,10,10.70
2016,06,16,09,11,10.80
2016,06,16,09,12,10.90
2016,06,16,09,13,11.00
2016,06,16,09,14,11.10
2016,06,16,09,15,11.10
2016,06,16,09,16,11.10
2016,06,16,09,17,11.10
2016,06,16,09,18,11.10
2016,06,16,09,19,11.10
2016,06,16,09,20,11.20
2016,06,16,09,21,11.30
2016,06,16,09,22,11.40
2016,06,16,09,23,11.50
2016,06,16,09,24,11.60
2016,06,16,09,25,11.60
2016,06,16,09,26,11.70
2016,06,16,09,27,11.80
2016,06,16,09,28,11.80
2016,06,16,09,29,11.90
2016,06,16,09,30,11.90
2016,06,16,09,31,12.00
2016,06,16,09,32,12.10
2016,06,16,09,33,12.10
2016,06,16,09,34,12.20
2016,06,16,09,35,12.20
2016,06,16,09,36,12.30
2016,06,16,09,37,12.40
2016,06,16,09,38,12.60
2016,06,16,09,39,12.70
2016,06,16,09,40,12.80
2016,06,16,09,41,13.00
2016,06,16,09,42,13.00
2016,06,16,09,43,13.20
2016,06,16,09,44,13.30
2016,06,16,09,45,13.30
2016,06,16,09,46,13.30
2016,06,16,09,47,13.40
2016,06,16,09,48,13.40
2016,06,16,09,49,13.40
2016,06,16,09,50,13.30
2016,06,16,09,51,13.30
2016,06,16,09,52,13.30
2016,06,16,09,53,13.30
2016,06,16,09,54,13.30
2016,06,16,09,55,13.30
2016,06,16,09,56,13.30
2016,06,16,09,57,13.30
2016,06,16,09,58,13.20
2016,06,16,09,59,13.20
2016,06,16,10,00,13.20
2016,06,16,10,01,13.10
2016,06,16,10,02,13.10
2016,06,16,10,03,13.20
2016,06,16,10,04,13.20
2016,06,16,10,05,13.20
2016,06,16,10,06,13.30
2016,06,16,10,07,13.30
2016,06,16,10,08,13.40
2016,06,16,10,09,13.50
2016,06,16,10,10,13.50
2016,06,16,10,11,13.60
2016,06,16,10,12,13.80
2016,06,16,10,13,13.90
2016,06,16,10,14,14.00
2016,06,16,10,15,14.10
2016,06,16,10,16,14.20
2016,06,16,10,17,14.20
2016,06,16,10,18,14.30
2016,06,16,10,19,14.30
2016,06,16,10,20,14.40
2016,06,16,10,21,14.40
2016,06,16,10,22,14.50
2016,06,16,10,23,14.50
2016,06,16,10,24,14.50
2016,06,16,10,25,14.50
2016,06,16,10,26,14.50
2016,06,16,10,27,14.40
2016,06,16,10,28,14.30
2016,06,16,10,29,14.30
2016,06,16,10,30,14.20
2016,06,16,10,31,14.20
2016,06,16,10,32,14.10
2016,06,16,10,33,14.10
2016,06,16,10,34,14.10
2016,06,16,10,35,14.10
2016,06,16,10,36,14.10
2016,06,16,10,37,14.10
2016,06,16,10,38,14.20
2016,06,16,10,39,14.30
2016,06,16,10,40,14.40
2016,06,16,10,41,14.50
2016,06,16,10,42,14.60
2016,06,16,10,43,14.70
2016,06,16,10,44,14.80
2016,06,16,10,45,15.00
2016,06,16,10,46,15.00
2016,06,16,10,47,15.00
2016,06,16,10,48,15.00
2016,06,16,10,49,15.00
2016,06,16,10,50,15.00
2016,06,16,10,51,15.00
2016,06,16,10,52,15.00
2016,06,16,10,53,15.00
2016,06,16,10,54,15.00
2016,06,16,10,55,15.10
2016,06,16,10,56,15.10
2016,06,16,10,57,15.10
2016,06,16,10,58,15.20
2016,06,16,10,59,15.10
2016,06,16,11,00,15.00
2016,06,16,11,01,15.00
2016,06,16,11,02,15.00
2016,06,16,11,03,15.00
2016,06,16,11,04,15.00
2016,06,16,11,05,15.00
2016,06,16,11,06,15.00
2016,06,16,11,07,15.00
2016,06,16,11,08,15.00
2016,06,16,11,09,15.00
2016,06,16,11,10,14.90
2016,06,16,11,11,14.80
2016,06,16,11,12,14.70
2016,06,16,11,13,14.70
2016,06,16,11,14,14.60
2016,06,16,11,15,14.60
2016,06,16,11,16,14.60
2016,06,16,11,17,14.60
2016,06,16,11,18,14.60
2016,06,16,11,19,14.70
2016,06,16,11,20,14.70
2016,06,16,11,21,14.80
2016,06,16,11,22,14.90
2016,06,16,11,23,15.00
2016,06,16,11,24,15.00
2016,06,16,11,25,15.00
2016,06,16,11,26,15.00
2016,06,16,11,27,15.00
2016,06,16,11,28,15.00
2016,06,16,11,29,15.10
2016,06,16,11,30,15.20
2016,06,16,11,31,15.30
2016,06,16,11,32,15.30
2016,06,16,11,33,15.40
2016,06,16,11,34,15.40
2016,06,16,11,35,15.50
2016,06,16,11,36,15.50
2016,06,16,11,37,15.60
2016,06,16,11,38,15.60
2016,06,16,11,39,15.60
2016,06,16,11,40,15.60
2016,06,16,11,41,15.60
2016,06,16,11,42,15.60
2016,06,16,11,43,15.60
2016,06,16,11,44,15.70
2016,06,16,11,45,15.70
2016,06,16,11,46,15.70
2016,06,16,11,47,15.70
2016,06,16,11,48,15.70
2016,06,16,11,49,15.70
2016,06,16,11,50,15.80
2016,06,16,11,51,15.80
2016,06,16,11,52,15.80
2016,06,16,11,53,15.90
2016,06,16,11,54,16.00
2016,06,16,11,55,16.20
2016,06,16,11,56,16.30
2016,06,16,11,57,16.30
2016,06,16,11,58,16.40
2016,06,16,11,59,16.50
2016,06,16,12,00,16.50
2016,06,16,12,01,16.40
2016,06,16,12,02,16.40
2016,06,16,12,03,16.40
2016,06,16,12,04,16.50
2016,06,16,12,05,16.60
2016,06,16,12,06,16.60
2016,06,16,12,07,16.70
2016,06,16,12,08,16.70
2016,06,16,12,09,16.70
2016,06,16,12,10,16.70
2016,06,16,12,11,16.70
2016,06,16,12,12,16.70
2016,06,16,12,13,16.70
2016,06,16,12,14,16.80
2016,06,16,12,15,16.80
2016,06,16,12,16,16.80
2016,06,16,12,17,16.70
2016,06,16,12,18,16.60
2016,06,16,12,19,16.50
2016,06,16,12,20,16.40
2016,06,16,12,21,16.30
2016,06,16,12,22,16.20
2016,06,16,12,23,16.10
2016,06,16,12,24,16.10
2016,06,16,12,25,16.00
2016,06,16,12,26,15.90
2016,06,16,12,27,16.00
2016,06,16,12,28,16.00
2016,06,16,12,29,16.10
2016,06,16,12,30,16.20
2016,06,16,12,31,16.20
2016,06,16,12,32,16.20
2016,06,16,12,33,16.30
2016,06,16,12,34,16.40
2016,06,16,12,35,16.50
2016,06,16,12,36,16.60
2016,06,16,12,37,16.70
2016,06,16,12,38,16.80
2016,06,16,12,39,16.80
2016,06,16,12,40,16.80
2016,06,16,12,41,16.80
2016,06,16,12,42,16.80
2016,06,16,12,43,16.80
2016,06,16,12,44,16.80
2016,06,16,12,45,16.90
2016,06,16,12,46,17.00
2016,06,16,12,47,17.10
2016,06,16,12,48,17.10
2016,06,16,12,49,17.20
2016,06,16,12,50,17.20
2016,06,16,12,51,17.20
2016,06,16,12,52,17.30
2016,06,16,12,53,17.30
2016,06,16,12,54,17.30
2016,06,16,12,55,17.30
2016,06,16,12,56,17.30
2016,06,16,12,57,17.40
2016,06,16,12,58,17.40
2016,06,16,12,59,17.50
2016,06,16,13,00,17.60
2016,06,16,13,01,17.70
2016,06,16,13,02,17.80
2016,06,16,13,03,17.90
2016,06,16,13,04,17.80
2016,06,16,13,05,17.80
2016,06,16,13,06,17.70
2016,06,16,13,07,17.80
2016,06,16,13,08,17.80
2016,06,16,13,09,17.90
2016,06,16,13,10,18.00
2016,06,16,13,11,18.10
2016,06,16,13,12,18.20
2016,06,16,13,13,18.20
2016,06,16,13,14,18.30
2016,06,16,13,15,18.40
2016,06,16,13,16,18.40
2016,06,16,13,17,18.40
2016,06,16,13,18,18.40
2016,06,16,13,19,18.50
2016,06,16,13,20,18.50
2016,06,16,13,21,18.50
2016,06,16,13,22,18.50
2016,06,16,13,23,18.50
2016,06,16,13,24,18.50
2016,06,16,13,25,18.40
2016,06,16,13,26,18.30
2016,06,16,13,27,18.20
2016,06,16,13,28,18.10
2016,06,16,13,29,18.00
2016,06,16,13,30,18.00
2016,06,16,13,31,18.00
2016,06,16,13,32,17.90
2016,06,16,13,33,17.80
2016,06,16,13,34,17.90
2016,06,16,13,35,17.90
2016,06,16,13,36,17.90
2016,06,16,13,37,17.90
2016,06,16,13,38,17.90
2016,06,16,13,39,17.90
2016,06,16,13,40,17.90
2016,06,16,13,41,17.90
2016,06,16,13,42,18.00
2016,06,16,13,43,18.10
2016,06,16,13,44,18.20
2016,06,16,13,45,18.20
2016,06,16,13,46,18.30
2016,06,16,13,47,18.40
2016,06,16,13,48,18.40
2016,06,16,13,49,18.40
2016,06,16,13,50,18.50
2016,06,16,13,51,18.50
2016,06,16,13,52,18.50
2016,06,16,13,53,18.50
2016,06,16,13,54,18.50
2016,06,16,13,55,18.40
2016,06,16,13,56,18.30
2016,06,16,13,57,18.30
2016,06,16,13,58,18.30
2016,06,16,13,59,18.30
2016,06,16,14,00,18.30
2016,06,16,14,01,18.40
2016,06,16,14,02,18.50
2016,06,16,14,03,18.60
2016,06,16,14,04,18.60
2016,06,16,14,05,18.60
2016,06,16,14,06,18.60
2016,06,16,14,07,18.70
2016,06,16,14,08,18.70
2016,06,16,14,09,18.70
2016,06,16,14,10,18.70
2016,06,16,14,11,18.80
2016,06,16,14,12,18.90
2016,06,16,14,13,19.00
2016,06,16,14,14,19.20
2016,06,16,14,15,19.20
2016,06,16,14,16,19.10
2016,06,16,14,17,18.90
2016,06,16,14,18,18.90
2016,06,16,14,19,18.80
2016,06,16,14,20,18.80
2016,06,16,14,21,18.90
2016,06,16,14,22,18.90
2016,06,16,14,23,18.90
2016,06,16,14,24,19.00
2016,06,16,14,25,19.00
2016,06,16,14,26,19.00
2016,06,16,14,27,19.00
2016,06,16,14,28,18.90
2016,06,16,14,29,18.80
2016,06,16,14,30,18.80
2016,06,16,14,31,18.80
2016,06,16,14,32,18.80
2016,06,16,14,33,18.80
2016,06,16,14,34,18.80
2016,06,16,14,35,18.80
2016,06,16,14,36,18.80
2016,06,16,14,37,18.80
2016,06,16,14,38,18.70
2016,06,16,14,39,18.70
2016,06,16,14,40,18.70
2016,06,16,14,41,18.80
2016,06,16,14,42,18.80
2016,06,16,14,43,18.80
2016,06,16,14,44,18.90
2016,06,16,14,45,18.90
2016,06,16,14,46,19.00
2016,06,16,14,47,19.00
2016,06,16,14,48,19.10
2016,06,16,14,49,19.20
2016,06,16,14,50,19.20
2016,06,16,14,51,19.10
2016,06,16,14,52,19.10
2016,06,16,14,53,19.00
2016,06,16,14,54,19.00
2016,06,16,14,55,19.00
2016,06,16,14,56,19.10
2016,06,16,14,57,19.20
2016,06,16,14,58,19.20
2016,06,16,14,59,19.20
2016,06,16,15,00,19.40
2016,06,16,15,01,19.40
2016,06,16,15,02,19.40
2016,06,16,15,03,19.40
2016,06,16,15,04,19.40
2016,06,16,15,05,19.50
2016,06,16,15,06,19.60
2016,06,16,15,07,19.60
2016,06,16,15,08,19.70
2016,06,16,15,09,19.70
2016,06,16,15,10,19.70
2016,06,16,15,11,19.70
2016,06,16,15,12,19.80
2016,06,16,15,13,19.80
2016,06,16,15,14,19.90
2016,06,16,15,15,19.90
2016,06,16,15,16,19.90
2016,06,16,15,17,19.90
2016,06,16,15,18,19.90
2016,06,16,15,19,19.90
2016,06,16,15,20,19.80
2016,06,16,15,21,19.80
2016,06,16,15,22,19.70
2016,06,16,15,23,19.70
2016,06,16,15,24,19.60
2016,06,16,15,25,19.50
2016,06,16,15,26,19.50
2016,06,16,15,27,19.40
2016,06,16,15,28,19.40
2016,06,16,15,29,19.30
2016,06,16,15,30,19.30
2016,06,16,15,31,19.30
2016,06,16,15,32,19.30
2016,06,16,15,33,19.30
2016,06,16,15,34,19.30
2016,06,16,15,35,19.30
2016,06,16,15,36,19.30
2016,06,16,15,37,19.30
2016,06,16,15,38,19.30
2016,06,16,15,39,19.30
2016,06,16,15,40,19.30
2016,06,16,15,41,19.20
2016,06,16,15,42,19.20
2016,06,16,15,43,19.20
2016,06,16,15,44,19.10
2016,06,16,15,45,19.00
2016,06,16,15,46,19.00
2016,06,16,15,47,19.00
2016,06,16,15,48,18.90
2016,06,16,15,49,18.90
2016,06,16,15,50,19.00
2016,06,16,15,51,19.00
2016,06,16,15,52,19.00
2016,06,16,15,53,19.00
2016,06,16,15,54,19.00
2016,06,16,15,55,19.10
2016,06,16,15,56,19.10
2016,06,16,15,57,19.10
2016,06,16,15,58,19.10
2016,06,16,15,59,19.10
2016,06,16,16,00,19.10
2016,06,16,16,01,19.10
2016,06,16,16,02,19.00
2016,06,16,16,03,18.90
2016,06,16,16,04,18.80
2016,06,16,16,05,18.70
2016,06,16,16,06,18.70
2016,06,16,16,07,18.60
2016,06,16,16,08,18.50
2016,06,16,16,09,18.40
2016,06,16,16,10,18.40
2016,06,16,16,11,18.40
2016,06,16,16,12,18.40
2016,06,16,16,13,18.40
2016,06,16,16,14,18.40
2016,06,16,16,15,18.40
2016,06,16,16,16,18.40
2016,06,16,16,17,18.40
2016,06,16,16,18,18.50
2016,06,16,16,19,18.50
2016,06,16,16,20,18.60
2016,06,16,16,21,18.60
2016,06,16,16,22,18.60
2016,06,16,16,23,18.50
2016,06,16,16,24,18.50
2016,06,16,16,25,18.40
2016,06,16,16,26,18.40
2016,06,16,16,27,18.30
2016,06,16,16,28,18.30
2016,06,16,16,29,18.20
2016,06,16,16,30,18.20
2016,06,16,16,31,18.10
2016,06,16,16,32,18.10
2016,06,16,16,33,18.00
2016,06,16,16,34,17.90
2016,06,16,16,35,17.80
2016,06,16,16,36,17.60
2016,06,16,16,37,17.50
2016,06,16,16,38,17.40
2016,06,16,16,39,17.30
2016,06,16,16,40,17.20
2016,06,16,16,41,17.10
2016,06,16,16,42,17.00
2016,06,16,16,43,17.00
2016,06,16,16,44,16.90
2016,06,16,16,45,16.90
2016,06,16,16,46,16.80
2016,06,16,16,47,16.80
2016,06,16,16,48,16.80
2016,06,16,16,49,16.70
2016,06,16,16,50,16.70
2016,06,16,16,51,16.70
2016,06,16,16,52,16.70
2016,06,16,16,53,16.60
2016,06,16,16,54,16.60
2016,06,16,16,55,16.60
2016,06,16,16,56,16.50
2016,06,16,16,57,16.50
2016,06,16,16,58,16.50
2016,06,16,16,59,16.40
2016,06,16,17,00,16.40
2016,06,16,17,01,16.40
2016,06,16,17,02,16.40
2016,06,16,17,03,16.40
2016,06,16,17,04,16.30
2016,06,16,17,05,16.30
2016,06,16,17,06,16.30
2016,06,16,17,07,16.30
2016,06,16,17,08,16.30
2016,06,16,17,09,16.30
2016,06,16,17,10,16.30
2016,06,16,17,11,16.30
2016,06,16,17,12,16.30
2016,06,16,17,13,16.30
2016,06,16,17,14,16.30
2016,06,16,17,15,16.30
2016,06,16,17,16,16.30
2016,06,16,17,17,16.30
2016,06,16,17,18,16.40
2016,06,16,17,19,16.40
2016,06,16,17,20,16.40
2016,06,16,17,21,16.40
2016,06,16,17,22,16.30
2016,06,16,17,23,16.30
2016,06,16,17,24,16.30
2016,06,16,17,25,16.30
2016,06,16,17,26,16.30
2016,06,16,17,27,16.30
2016,06,16,17,28,16.30
2016,06,16,17,29,16.40
2016,06,16,17,30,16.40
2016,06,16,17,31,16.50
2016,06,16,17,32,16.50
2016,06,16,17,33,16.50
2016,06,16,17,34,16.60
2016,06,16,17,35,16.60
2016,06,16,17,36,16.60
2016,06,16,17,37,16.60
2016,06,16,17,38,16.70
2016,06,16,17,39,16.70
2016,06,16,17,40,16.80
2016,06,16,17,41,16.90
2016,06,16,17,42,16.90
2016,06,16,17,43,17.00
2016,06,16,17,44,17.10